Weather History for Springfield, CO

Change the Weather History Date:

Saturday, April 20, 2013

  Actual Average Record
Temperature  
Mean Temperature 46 °F -  
Max Temperature 65 °F 68 °F 84 °F (2008)
Min Temperature 26 °F 38 °F 26 °F (2013)
Degree Days  
Heating Degree Days 19 12  
Month to date heating degree days 421 300  
Since 1 July heating degree days 4879 4993  
Cooling Degree Days 0 0  
Month to date cooling degree days 0 0  
Year to date cooling degree days 0 0  
Moisture  
Dew Point 18 °F    
Average Humidity 37    
Maximum Humidity 57    
Minimum Humidity 17    
Precipitation  
Precipitation 0.00 in 0.05 in 0.10 in (2014)
Month to date precipitation 0.30 0.84  
Year to date precipitation 0.60 2.78  
Sea Level Pressure  
Sea Level Pressure 29.82 in    
Wind  
Wind Speed 11 mph (NNW)    
Max Wind Speed 25 mph    
Max Gust Speed 32 mph    
T = Trace of Precipitation, MM = Missing Value Source: NWS Daily Summary

Daily Weather History Graph

Daily Weather History Graph

Search for Another Location

Airport:

Trip Planner

Search our weather history database for the weather conditions in past years. The results will help you decide how hot, cold, wet, or windy it might be!

Date:

Astronomy

Apr. 20, 2013 Rise Set
Actual Time 6:08 AM MDT 7:30 PM MDT
Civil Twilight 5:41 AM MDT 7:57 PM MDT
Nautical Twilight 5:09 AM MDT 8:30 PM MDT
Astronomical Twilight 4:34 AM MDT 9:04 PM MDT
Moon 2:22 PM MDT (4/20) 2:52 AM MDT (4/20)
Length of Visible Light 14h 16m
Length of Day
13h 21m
Waxing Gibbous, 71% of the Moon is Illuminated
Apr 20
Waxing Gibbous
Apr 25
Full
May 2
Last Quarter
May 9
New
May 17
First Quarter

Hourly Weather History & Observations

Time (MDT) Temp. Windchill Dew Point Humidity Pressure Visibility Wind Dir Wind Speed Gust Speed Precip Events Conditions
12:56 AM 39.9 °F 33.9 °F 14.0 °F 35% 29.86 in - South 9.2 mph - N/A   Unknown
1:56 AM 35.1 °F 29.3 °F 15.1 °F 44% 29.83 in - SSE 6.9 mph - N/A   Unknown
2:56 AM 30.0 °F - 12.9 °F 49% 29.82 in - Calm Calm - N/A   Unknown
3:56 AM 27.0 °F 19.5 °F 12.9 °F 56% 29.81 in - NNW 6.9 mph - N/A   Unknown
4:56 AM 27.0 °F 18.7 °F 14.0 °F 58% 29.80 in - NW 8.1 mph - N/A   Unknown
5:56 AM 30.0 °F 21.1 °F 15.1 °F 54% 29.79 in - NNW 10.4 mph - N/A   Unknown
6:56 AM 36.0 °F 29.0 °F 19.0 °F 50% 29.80 in - NNW 9.2 mph - N/A   Unknown
7:56 AM 46.0 °F 39.3 °F 24.1 °F 42% 29.80 in - NNW 16.1 mph - N/A   Unknown
8:56 AM 54.0 °F - 21.9 °F 29% 29.78 in - NNW 24.2 mph 29.9 mph N/A   Unknown
9:56 AM 57.9 °F - 21.0 °F 24% 29.78 in - North 16.1 mph 23.0 mph N/A   Unknown
10:56 AM 59.0 °F - 19.0 °F 21% 29.78 in - North 19.6 mph 24.2 mph N/A   Unknown
11:56 AM 61.0 °F - 17.1 °F 18% 29.76 in - North 21.9 mph 29.9 mph N/A   Unknown
12:56 PM 61.0 °F - 16.0 °F 17% 29.77 in - North 21.9 mph 25.3 mph N/A   Unknown
1:56 PM 61.0 °F - 17.1 °F 18% 29.79 in - NNE 23.0 mph 28.8 mph N/A   Unknown
2:56 PM 60.1 °F - 19.0 °F 20% 29.81 in - North 15.0 mph - N/A   Unknown
3:56 PM 64.0 °F - 19.0 °F 18% 29.80 in - Variable 6.9 mph - N/A   Unknown
4:56 PM 64.0 °F - 19.0 °F 18% 29.81 in - North 15.0 mph 20.7 mph N/A   Unknown
5:56 PM 61.0 °F - 18.0 °F 19% 29.82 in - NE 5.8 mph - N/A   Unknown
6:56 PM 57.0 °F - 19.9 °F 24% 29.83 in - NE 6.9 mph - N/A   Unknown
7:56 PM 48.9 °F - 21.0 °F 33% 29.87 in - Calm Calm - N/A   Unknown
8:56 PM 45.0 °F - 19.0 °F 36% 29.89 in - Calm Calm - N/A   Unknown
9:56 PM 42.1 °F - 19.0 °F 40% 29.91 in - Calm Calm - N/A   Unknown
10:56 PM 43.0 °F 39.5 °F 19.9 °F 40% 29.91 in - West 5.8 mph - N/A   Unknown
11:56 PM 41.0 °F 35.2 °F 21.0 °F 45% 29.91 in - NW 9.2 mph - N/A   Unknown